Погода в Онохое

Россия / Республика Бурятия     51°55′36″N   108°03′57″E
темп.,
°C
ветер,
м/с
пор.,
м/с
влажн.,
%
обл.,
%
осадки,
мм/ч
давл.,
гПа
погр.,
м
13 апреля, вт
вт1323:00−6сз228213 0.0 102726
02:00−7сз229125 0.0 102623
05:00−7зсз229557 0.0 102562
08:00−3зюз257994 0.1 1023497
11:00+2з355199 0.0 10201176
14:00+6з473192 0.0 10151839
17:00+5зсз6950100 0.0 10131277
20:00+1з51381100 0.0 10141038
14 апреля, ср
ср1423:000зсз41085100 0.1 1015621
02:00−1зсз61182100 0.3 1016836
05:00−2зсз2484100 0.1 1016299
08:00−2сз3673100 0.2 1017868
11:000сз4650100 0.1 10161606
14:00+2сз6838100 0.1 10152236
17:00+2сз61037100 0.0 10152382
20:00−3зсз217179 0.1 101617
15 апреля, чт
чт1523:00−4зсз39694 0.0 1017384
02:00−6зсз228779 0.0 101637
05:00−7з229012 0.0 101525
08:00−4юз1367100 0.0 1013286
11:00+1з4745100 0.0 10101505
14:00+2зсз8104498 0.3 10092139
17:00+1сз795690 0.5 10121456
20:00−3сз496540 0.8 1015513
16 апреля, пт
пт1623:00−3сз4107033 0.0 1018838
02:00−5сз378235 0.1 1021428
05:00−7зсз239185 0.0 102375
08:00−4з356940 0.0 1023589
11:00+1зсз464282 0.0 10221481
14:00+4з463382 0.0 10181615
17:00+5зсз573399 0.0 10171318
20:00+1зсз225493 0.0 101812
17 апреля, сб
сб1723:00−1сз11575 0.0 101811
02:00−2зсз11605 0.0 101810
05:00
08:00+2ююв11475 0.0 1016143
11:00+9ю233361 0.0 1013686
14:00+14ююз352531 0.0 10081645
17:00+14юз46270 0.0 10061803
20:00+7ссз22434 0.0 100711